Location: Newark
(41.2758°N, 92.6808°W)
Time: 04:35:12
(UTC+00:00)

Envisat - Pass Details

Date: 25 September 2019
Orbit: 764 x 766 km, 98.1° (Epoch: 15 October)

Event Time Altitude Azimuth Distance (km) Brightness Sun altitude
Rises 01:13:54 0° 196° (SSW) 3,218 6.3 -13.7°
Reaches altitude 10° 01:16:33 10° 209° (SSW) 2,297 5.7 -14.2°
Maximum altitude 01:20:45 26° 266° (W) 1,471 5.3 -15.0°
Drops below altitude 10° 01:24:59 10° 322° (NW) 2,310 6.2 -15.8°
Sets 01:27:40 0° 335° (NNW) 3,241 6.8 -16.3°
